Temp
11 11 11 10 9 9 9 9 8 7 6 6 6 5 4 4 3 2 1 1 1 0
11 10 9 9 8 8 7 7 6 6 6 5 4 4 3 3 2 1 2 2 1 1
9 9 8 7 7 7 6 6 5 5 4 3 2 2 2 2 2 2 2 2 2 2
9 8 7 7 6 6 5 4 3 2 1 1 1 1 1 1 2 2 3 3 3 4
8 7 7 6 5 5 4 2 1 1 1 2 2 2 2 3 3 3 3 3 3 3
7 6 6 5 3 2 2 2 2 3 3 3 3 3 3 3 2 2 2 2 2 2
6 5 4 3 3 3 4 4 3 3 2 2 2 2 2 1 1 1 1 1 1 1
5 3 2 2 2 3 3 3 3 2 2 2 2 2 -1 -1 -0 0 1 0 -0 -0
4 3 3 3 3 3 3 3 2 2 2 1 1 -1 -2 -3 -2 -1 -1 -0 -1 -1
4 4 4 3 3 3 2 2 2 1 1 0 0 -2 -3 -4 -3 -2 -1 -1 -1 -1
4 3 3 3 2 2 2 1 1 1 -0 -0 -1 -3 -5 -5 -4 -2 -2 -2 -2 -2
3 3 2 2 2 1 1 1 0 -1 -1 -2 -2 -4 -5 -6 -4 -3 -3 -4 -4 -4
2 2 2 1 1 0 0 -0 -1 -2 -3 -3 -3 -5 -6 -6 -5 -5 -4 -4 -4 -4
2 2 1 1 0 -0 -1 -1 -3 -4 -4 -4 -4 -5 -6 -6 -6 -6 -5 -5 -4 -4
Height
821 819 818 816 814 811 806 801 798 795 793 792 790 787 787 786 784 783 782 781 780 781
821 819 817 814 811 806 802 798 796 796 794 791 789 787 787 785 784 783 781 780 778 779
819 816 814 811 806 802 798 796 795 794 793 791 789 788 786 784 782 781 779 778 777 776
816 814 811 808 805 802 799 797 795 795 793 792 790 787 786 785 783 781 778 776 774 771
814 811 808 805 803 802 800 799 795 794 793 791 788 785 784 781 780 778 775 773 770 768
810 809 806 804 803 800 798 796 793 792 790 787 785 783 781 779 777 775 772 769 767 764
807 807 805 802 802 799 796 793 790 789 788 785 783 781 779 777 774 771 769 766 763 761
806 806 803 800 800 797 794 792 789 787 785 783 780 778 776 774 771 767 764 761 759 756
806 804 801 799 796 795 793 790 787 784 782 780 777 774 773 771 767 763 759 756 753 751
805 802 799 796 794 793 790 787 784 782 779 777 775 771 770 767 763 759 754 751 748 745
804 801 797 794 792 790 788 785 782 779 777 774 772 769 766 763 758 754 750 746 743 740
803 801 796 792 790 788 785 782 779 777 774 771 768 766 763 759 755 749 745 742 739 735
800 798 794 791 787 785 782 780 778 775 773 769 765 763 760 757 752 746 741 737 733 730
797 794 792 788 785 783 780 778 777 774 770 766 763 760 756 753 749 744 739 733 728 724
Wind_Speed
15 16 18 20 23 26 27 24 20 12 8 6 4 3 1 2 4 5 3 4 6 6
14 15 18 21 22 24 22 18 12 8 7 6 6 6 5 6 4 2 1 0 0 2
15 17 18 20 21 18 15 9 6 6 8 8 9 9 9 8 7 6 6 5 7 9
17 17 17 18 16 12 6 6 7 8 9 12 10 8 8 8 10 11 11 12 13 14
18 17 15 14 11 8 4 4 5 9 12 9 11 11 12 12 11 11 13 15 16 18
18 15 13 11 7 5 7 9 10 9 11 13 11 11 10 12 14 15 17 17 18 18
14 11 10 8 8 10 10 11 12 13 14 15 13 13 12 14 16 18 18 18 18 19
11 11 8 12 11 12 14 16 15 15 13 12 13 13 13 16 18 20 20 20 20 20
8 7 7 10 11 13 14 15 14 14 15 16 16 14 15 17 19 20 21 20 20 20
10 10 9 10 13 15 16 16 15 15 16 16 15 15 18 18 20 21 20 21 21 23
11 10 11 13 14 16 15 16 16 16 15 16 17 17 16 20 20 20 21 21 23 22
13 13 13 14 15 15 15 16 15 15 16 17 18 17 18 18 20 21 22 22 20 20
12 13 14 14 14 14 15 15 15 16 17 17 18 17 17 19 20 20 20 20 20 20
12 13 13 13 13 14 15 15 14 16 16 15 14 18 16 18 19 19 20 22 22 19
Wind_Direction
336 335 332 328 323 317 311 307 306 298 290 294 294 287 319 330 307 317 350 17 35 21
315 318 317 317 316 315 309 305 299 289 294 312 340 321 318 310 291 298 227 180 222 298
310 314 313 316 318 316 311 302 294 327 339 6 8 345 329 326 320 294 286 277 263 262
312 313 316 318 319 328 344 7 20 17 355 342 346 332 317 312 308 301 297 290 283 284
316 318 321 327 326 326 329 346 334 331 323 309 302 291 286 292 290 288 292 291 291 288
319 314 317 320 308 303 291 292 299 298 306 316 312 306 300 299 299 299 297 296 294 291
313 312 307 299 298 299 307 311 314 313 312 304 301 303 303 309 306 301 297 294 290 287
321 301 316 335 324 314 313 317 315 310 308 304 302 306 314 314 308 302 298 293 291 288
343 328 329 325 326 328 323 320 316 310 305 304 305 299 313 317 308 301 297 296 295 292
322 324 332 332 329 326 320 316 312 309 308 307 307 303 314 316 309 301 295 295 295 294
324 324 323 324 324 321 317 314 312 312 312 309 309 316 316 315 309 301 297 295 294 294
314 312 317 320 320 318 316 315 314 315 315 312 310 315 319 320 311 304 301 296 292 288
308 308 315 319 318 316 314 313 316 316 315 315 311 320 321 323 313 306 303 302 297 292
303 309 314 314 315 314 316 315 319 314 314 310 314 317 316 321 316 311 310 304 301 297